"TOA5","AWS1","CR1000","7964","CR1000.Std.14","CPU:AWS1_114.CR1","64363","TBL110"
"TIMESTAMP","RECORD","Wind_spd_WVc(1)","Wind_spd_WVc(2)","Air_Temp_Avg","Humidity_Avg","SW_upper_Wm2_Avg","Rain_Tot","Press_Avg","Issui_Tot","Depth_cm","SR50A_Raw","Quality","Ground_Temp_Avg(1)","Ground_Temp_Avg(2)","SW_lower_Wm2_Avg","Albedo_Avg","SWC_per(1)","SWC_per(2)","Period(1)","Period(2)"
"TS","RN","","","","","","","","","","","","","","","","","","",""
"","","WVc","WVc","Avg","Avg","Avg","Tot","Avg","Tot","Smp","Smp","Smp","Avg","Avg","Avg","Avg","Smp","Smp","Smp","Smp"
"2017-03-27 00:00:00",281005,0,0,-1.177,100,0.007865938,0,859.3619,0,113,2.054,186,0.766,1.284,0.1592695,0,52.32,60.27,33.87,35.74
"2017-03-27 00:10:00",281006,0,0,-1.322,100,0.3854309,0,859.2439,0,113.5,2.05,192,0.766,1.284,0,0,52.38,60.27,33.88,35.74
"2017-03-27 00:20:00",281007,0,0,-1.413,100,0.2792408,0,859.012,0.5,113.3,2.052,177,0.766,1.284,0,0,52.32,60.27,33.87,35.74
"2017-03-27 00:30:00",281008,0,0,-1.341,100,0.05899453,0,858.991,0,113.5,2.05,186,0.766,1.284,0,0,52.32,60.27,33.87,35.74
"2017-03-27 00:40:00",281009,0,0,-1.362,100,0,0,858.9088,0.5,113.8,2.047,182,0.766,1.284,0,0,52.32,60.27,33.87,35.74
"2017-03-27 00:50:00",281010,0,0,-1.355,100,0,0,858.8307,0,113.9,2.046,180,0.766,1.284,0,0,52.38,60.27,33.88,35.74
"2017-03-27 01:00:00",281011,0,0,-1.394,100,0,0,858.6727,0.5,113.3,2.052,203,0.764,1.284,0,0,52.32,60.27,33.87,35.74
"2017-03-27 01:10:00",281012,0,0,-1.425,100,0,0,858.7296,0,114.4,2.041,186,0.766,1.284,0,0,52.32,60.27,33.87,35.74
"2017-03-27 01:20:00",281013,0,0,-1.361,100,0,0,858.7233,0.5,114.7,2.038,192,0.753,1.284,0.00379213,0,52.32,60.27,33.87,35.74
"2017-03-27 01:30:00",281014,0,0,-1.313,100,0,0,858.7086,0.5,115,2.035,172,0.758,1.284,0,0,52.32,60.27,33.87,35.74
"2017-03-27 01:40:00",281015,0,0,-1.303,100,0,0,858.5462,0,115.2,2.033,176,0.764,1.284,0,0,52.38,60.27,33.88,35.74
"2017-03-27 01:50:00",281016,0,0,-1.312,100,0,0,858.4852,0.5,115.5,2.03,194,0.761,1.284,0,0,52.38,60.27,33.88,35.74
"2017-03-27 02:00:00",281017,0,0,-1.424,100,0.003932969,0,858.2723,0,115.4,2.031,192,0.766,1.284,0,0,52.38,60.27,33.88,35.74
"2017-03-27 02:10:00",281018,0,0,-1.473,100,0.01573188,0,858.0362,0,115.6,2.03,194,0.764,1.284,0,0,52.38,60.27,33.88,35.74
"2017-03-27 02:20:00",281019,0,0,-1.572,100,0.2084474,0,857.8401,0.5,116,2.026,193,0.766,1.284,0,0,52.38,60.27,33.88,35.74
"2017-03-27 02:30:00",281020,0,0,-1.585,100,0.1848495,0,857.7116,0,115.8,2.028,177,0.758,1.284,0.01137639,0,52.38,60.27,33.88,35.74
"2017-03-27 02:40:00",281021,0,0,-1.573,100,0.01966484,0,857.4671,0,115.8,2.028,193,0.761,1.284,0.05688196,0,52.32,60.27,33.87,35.74
"2017-03-27 02:50:00",281022,0,0,-1.639,100,0.07865938,0,857.1932,0,115.8,2.028,197,0.758,1.284,0.1289324,0.096,52.38,60.27,33.88,35.74
"2017-03-27 03:00:00",281023,0,0,-1.607,100,0,0,856.8411,0.5,115.6,2.03,198,0.744,1.284,0.1630616,0,52.38,60.27,33.88,35.74
"2017-03-27 03:10:00",281024,0,0,-1.562,100,0.05506156,0,856.9697,0,115.8,2.029,198,0.753,1.284,0.1478931,0,52.38,60.33,33.88,35.75
"2017-03-27 03:20:00",281025,0,0,-2.001,100,0.4247606,0,856.9951,0,115.9,2.029,196,0.736,1.284,0,0,52.32,60.27,33.87,35.74
"2017-03-27 03:30:00",281026,0,0,-2.216,100,0.5820794,0,857.0266,0,116.1,2.027,194,0.728,1.284,0,0,52.38,60.27,33.88,35.74
"2017-03-27 03:40:00",281027,0,0,-2.32,100,0.4955541,0,856.955,0,116.1,2.028,195,0.716,1.284,0,0,52.38,60.27,33.88,35.74
"2017-03-27 03:50:00",281028,0,0,-2.379,100,0.4011628,0,856.7168,0,116,2.029,199,0.72,1.284,0,0,52.38,60.27,33.88,35.74
"2017-03-27 04:00:00",281029,0,0,-2.327,100,0.2359781,0,856.6304,0.5,115.9,2.03,199,0.723,1.284,0,0,52.38,60.27,33.88,35.74
"2017-03-27 04:10:00",281030,0,0,-2.246,100,0.1455198,0,856.4491,0,115.3,2.035,195,0.714,1.284,0.1213482,0.145,52.32,60.33,33.87,35.75
"2017-03-27 04:20:00",281031,0,0,-2.165,100,0,0,856.4681,0,115.4,2.034,195,0.721,1.284,0.01516852,0,52.38,60.27,33.88,35.74
"2017-03-27 04:30:00",281032,0,0,-2.295,100,0.02359781,0,856.4892,0,115.1,2.038,200,0.723,1.284,0,0,52.32,60.27,33.87,35.74
"2017-03-27 04:40:00",281033,0,0,-2.31,100,0.06686047,0,856.5819,0,116.6,2.023,428,0.733,1.284,0,0,52.38,60.27,33.88,35.74
"2017-03-27 04:50:00",281034,0,0,-2.317,100,0.2359781,0,856.5967,0,115.9,2.03,220,0.738,1.284,0,0,52.32,60.27,33.87,35.74
"2017-03-27 05:00:00",281035,0,0,-2.332,100,0.2084474,0,856.4955,0,116,2.029,203,0.73,1.284,0,0,52.38,60.27,33.88,35.74
"2017-03-27 05:10:00",281036,0,0,-2.341,100,0.1022572,0,856.5018,0,115.9,2.029,202,0.731,1.284,0,0,52.38,60.27,33.88,35.74
"2017-03-27 05:20:00",281037,0,0,-2.331,100,0.04719562,0,856.7062,0,115.9,2.03,201,0.722,1.284,0,0,52.38,60.27,33.88,35.74
"2017-03-27 05:30:00",281038,0,0,-2.323,100,0,0,856.7126,0,116,2.029,200,0.723,1.284,0.00379213,0,52.32,60.27,33.87,35.74
"2017-03-27 05:40:00",281039,0,0,-2.305,100,0.05506156,0,856.603,0,115.8,2.031,200,0.728,1.284,0.1706459,0.225,52.32,60.27,33.87,35.74
"2017-03-27 05:50:00",281040,0,0,-2.316,100,0.2359781,0,856.485,0,115.9,2.03,200,0.726,1.284,0.4209265,1.784,52.32,60.27,33.87,35.74
"2017-03-27 06:00:00",281041,0,0,-2.346,100,0.3264364,0,856.4639,0,115.9,2.03,190,0.73,1.284,1.179352,3.809,52.32,60.27,33.87,35.74
"2017-03-27 06:10:00",281042,0,0,-2.352,100,1.25855,0,856.4618,0,115.8,2.031,186,0.725,1.284,5.142128,4.023,52.32,60.27,33.87,35.74
"2017-03-27 06:20:00",281043,0,0,-2.279,100,3.063783,0,856.4576,0,115.7,2.031,190,0.73,1.284,13.76164,4.489,52.38,60.27,33.88,35.74
"2017-03-27 06:30:00",281044,0,0,-2.259,100,2.804207,0,856.4618,0,115.8,2.03,200,0.723,1.284,12.71501,4.536,52.38,60.27,33.88,35.74
"2017-03-27 06:40:00",281045,0,0,-2.308,100,2.285055,0,856.4618,0,115.7,2.031,194,0.718,1.284,9.980886,4.381,52.38,60.27,33.88,35.74
"2017-03-27 06:50:00",281046,0,0,-2.333,100,3.240766,0,856.4618,0,115.8,2.031,198,0.725,1.284,13.45448,4.149,52.32,60.33,33.87,35.75
"2017-03-27 07:00:00",281047,0,0,-2.344,100,4.058824,0,856.6008,0,115.7,2.032,198,0.721,1.284,18.0202,4.297,52.32,60.27,33.87,35.74
"2017-03-27 07:10:00",281048,0,0,-2.401,100,7.728284,0,856.7105,0,115.8,2.031,198,0.715,1.284,36.05178,4.661,52.38,60.27,33.88,35.74
"2017-03-27 07:20:00",281049,0,0,-2.32,100,8.872778,0,856.7253,0,115.7,2.032,199,0.712,1.284,41.45177,4.648,52.38,60.27,33.88,35.74
"2017-03-27 07:30:00",281050,0,0,-2.431,100,5.466827,0,856.8559,0,115.7,2.033,193,0.731,1.284,24.2355,4.43,52.32,60.27,33.87,35.74
"2017-03-27 07:40:00",281051,0,0,-2.584,100,6.351745,0,856.9677,0,115.7,2.033,192,0.731,1.284,27.77735,4.364,52.32,60.27,33.87,35.74
"2017-03-27 07:50:00",281052,0,0,-2.575,100,6.257354,0,856.9845,0,115.7,2.033,192,0.724,1.284,25.96851,4.137,52.38,60.27,33.88,35.74
"2017-03-27 08:00:00",281053,0,0,-2.545,100,7.865938,0,857.1974,0,115.6,2.033,187,0.738,1.284,34.5956,4.315,52.38,60.33,33.88,35.75
"2017-03-27 08:10:00",281054,0,0,-2.379,100,14.31207,0,857.2227,0,115.6,2.033,178,0.756,1.284,66.68461,4.661,52.32,60.33,33.87,35.75
"2017-03-27 08:20:00",281055,0,0,-2.405,100,9.623975,0,857.2943,0,115.6,2.034,177,0.763,1.284,44.43998,4.572,52.38,60.27,33.88,35.74
"2017-03-27 08:30:00",281056,0,0,-2.561,100,10.94939,0,857.463,0,115.5,2.034,177,0.758,1.284,47.29166,4.308,52.38,60.27,33.88,35.74
"2017-03-27 08:40:00",281057,0,0,-2.508,100,15.28352,0,857.4693,0,115.5,2.034,176,0.76,1.281,67.81846,4.434,52.38,60.27,33.88,35.74
"2017-03-27 08:50:00",281058,0,0,-2.384,100,14.21768,0,857.4735,0,115.6,2.033,189,0.766,1.278,64.15526,4.513,52.38,60.27,33.88,35.74
"2017-03-27 09:00:00",281059,0,0,-2.384,100,20.37278,0,857.4735,0,115.7,2.032,189,0.766,1.274,91.32207,4.479,52.32,60.27,33.87,35.74
"2017-03-27 09:10:00",281060,0,0,-2.303,100,21.98923,0,857.4819,0,115.6,2.032,190,0.765,1.271,100.4801,4.566,52.38,60.27,33.88,35.74
"2017-03-27 09:20:00",281061,0,0,-2.187,100,22.16228,0,857.5725,0,115.7,2.031,185,0.764,1.241,102.9184,4.645,52.38,60.27,33.88,35.74
"2017-03-27 09:30:00",281062,0,0,-2.179,100,25.27326,0,857.6315,0,115.5,2.033,173,0.75,1.212,115.2315,4.564,52.38,60.27,33.88,35.74
"2017-03-27 09:40:00",281063,0,0,-2.027,100,34.86184,0,857.6105,0,115.5,2.032,172,0.729,1.207,158.8599,4.527,52.38,60.27,33.88,35.74
"2017-03-27 09:50:00",281064,0,0,-2.1,100,21.02958,0,857.7242,0,115.6,2.032,173,0.726,1.208,91.87194,4.356,52.38,60.33,33.88,35.75
"2017-03-27 10:00:00",281065,0,0,-2.047,100,20.71102,0,857.7116,0,115.5,2.032,181,0.718,1.209,91.14764,4.398,52.38,60.27,33.88,35.74
"2017-03-27 10:10:00",281066,0,0,-2.132,100,24.91143,0,857.7258,0,115.6,2.032,174,0.701,1.2,109.3082,4.36,52.38,60.27,33.88,35.74
"2017-03-27 10:20:00",281067,0,0,-1.652,100,53.89347,0,857.7578,0,115.6,2.03,177,0.729,1.209,254.1524,4.709,52.32,60.27,33.87,35.74
"2017-03-27 10:30:00",281068,0.046,275.1,-1.456,100,58.32174,0,857.8621,0,115.4,2.03,176,0.765,1.267,264.9209,4.527,52.38,60.27,33.88,35.74
"2017-03-27 10:40:00",281069,0.114,333.3,-1.039,96.4,67.6202,0,857.8621,0,115.1,2.031,179,0.754,1.352,332.3336,4.871,52.38,60.33,33.88,35.75
"2017-03-27 10:50:00",281070,0.807,325.2,-0.831,92.4,63.79634,0,857.8953,0,115.2,2.032,177,0.737,1.336,327.8483,5.126,52.38,60.33,33.88,35.75
"2017-03-27 11:00:00",281071,0.91,336.4,-0.868,89.6,81.02281,0,857.894,0.5,114.3,2.039,189,0.755,1.296,402.7157,4.878,52.38,60.33,33.88,35.75
"2017-03-27 11:10:00",281072,0.77,359,-0.562,90.1,56.24017,0,857.8915,0,114.2,2.04,180,0.713,1.223,261.4754,4.663,52.38,60.33,33.88,35.75
"2017-03-27 11:20:00",281073,0.468,336,-0.807,93.2,45.27324,0,858.0153,0,114.1,2.043,177,0.69,1.201,203.4226,4.503,52.38,60.33,33.88,35.75
"2017-03-27 11:30:00",281074,0.887,323,-0.825,89.5,81.13728,0,858.1247,0,113.7,2.044,194,0.681,1.198,354.2512,4.323,52.38,60.33,33.88,35.75
"2017-03-27 11:40:00",281075,0.537,274.7,-0.256,86.8,71.32767,0,858.0778,0,113.8,2.045,195,0.679,1.216,304.742,4.247,52.44,60.27,33.89,35.74
"2017-03-27 11:50:00",281076,0.645,324.9,-0.515,91.8,90.73415,0,858.0447,0,113.4,2.047,193,0.678,1.263,384.664,4.201,52.38,60.33,33.88,35.75
"2017-03-27 12:00:00",281077,0.642,318.8,-0.376,90.2,62.83471,0,858.0243,0,113.2,2.051,175,0.653,1.291,257.0582,4.084,52.44,60.33,33.89,35.75
"2017-03-27 12:10:00",281078,0.958,331.9,-1.024,92.6,60.68479,0,858.0957,0,113,2.054,174,0.645,1.269,232.8036,3.856,52.38,60.33,33.88,35.75
"2017-03-27 12:20:00",281079,0.675,338.5,-0.595,86.2,91.3298,0,858.0857,0,112.5,2.058,184,0.62,1.272,343.9373,3.703,52.38,60.33,33.88,35.75
"2017-03-27 12:30:00",281080,0.463,9.07,-0.744,91.3,66.89177,0,858.0574,0,112.4,2.059,186,0.589,1.252,252.3655,3.778,52.38,60.33,33.88,35.75
"2017-03-27 12:40:00",281081,1.043,288.3,-1.005,87.9,67.51523,0,858.0572,0,112.5,2.059,243,0.593,1.256,259.8672,3.85,52.38,60.33,33.88,35.75
"2017-03-27 12:50:00",281082,1.075,312.8,-1.356,90.6,46.13778,0,858.095,0,112.9,2.056,297,0.591,1.219,169.8669,3.692,52.32,60.33,33.87,35.75
"2017-03-27 13:00:00",281083,0.879,243.8,-1.412,91.8,45.57985,0,858.253,0,112.2,2.064,196,0.593,1.192,154.2014,3.355,52.38,60.33,33.88,35.75
"2017-03-27 13:10:00",281084,1.358,305.9,-1.43,90.6,91.23982,0,858.293,0,112.2,2.062,174,0.597,1.137,311.6595,3.389,52.38,60.33,33.88,35.75
"2017-03-27 13:20:00",281085,0.653,83.2,-0.815,84.1,110.3671,0,858.3077,0,112,2.063,174,0.602,1.173,375.6317,3.392,52.32,60.33,33.87,35.75
"2017-03-27 13:30:00",281086,1.139,282.3,-1.057,85,64.77563,0,858.2845,0,112.3,2.063,190,0.609,1.225,220.7336,3.39,52.38,60.33,33.88,35.75
"2017-03-27 13:40:00",281087,0.913,316.4,-1.414,85.6,86.37436,0,858.1182,0,112.1,2.064,186,0.609,1.179,269.4866,3.11,52.38,60.33,33.88,35.75
"2017-03-27 13:50:00",281088,0.873,297.5,-0.287,80.1,202.013,0,858.055,0,111.6,2.064,192,0.605,1.243,598.0407,2.966,52.38,60.33,33.88,35.75
"2017-03-27 14:00:00",281089,0.929,311.1,-0.489,79.22,98.79658,0,858.055,0,111.8,2.066,191,0.643,1.251,304.1144,3.269,52.44,60.27,33.89,35.74
"2017-03-27 14:10:00",281090,0.941,290.8,-1.164,83.4,70.837,0,858.0529,0,111.5,2.07,191,0.623,1.261,221.7119,3.162,52.38,60.33,33.88,35.75
"2017-03-27 14:20:00",281091,1.056,294.1,-1.162,83.1,114.7299,0,858.0571,0,111.4,2.069,189,0.611,1.258,260.2034,2.314,52.38,60.27,33.88,35.74
"2017-03-27 14:30:00",281092,1.414,261.7,-0.721,81.7,112.5204,0,858.0571,0,111.3,2.071,190,0.674,1.235,219.6993,1.977,52.38,60.33,33.88,35.75
"2017-03-27 14:40:00",281093,1.125,274.5,-0.962,83,143.1332,0,858.0529,0,111.3,2.071,189,0.636,1.249,193.1531,1.365,52.38,60.33,33.88,35.75
"2017-03-27 14:50:00",281094,0.72,174,-0.938,82.5,148.5923,0,858.055,0,111.2,2.073,191,0.618,1.273,150.4335,1.025,52.38,60.33,33.88,35.75
"2017-03-27 15:00:00",281095,0.784,254,-1.115,79.62,149.6418,0,858.1161,0,111,2.074,190,0.612,1.276,162.7496,1.088,52.38,60.33,33.88,35.75
"2017-03-27 15:10:00",281096,0.783,291.2,-1.019,81.7,146.0809,0,858.0992,0,110.9,2.074,191,0.598,1.221,169.207,1.174,52.38,60.33,33.88,35.75
"2017-03-27 15:20:00",281097,0.775,306.6,-1.196,84.5,114.3438,0,858.2551,0,110.9,2.077,191,0.59,1.172,143.5138,1.254,52.38,60.27,33.88,35.74
"2017-03-27 15:30:00",281098,0.36,294.5,-1.199,87.1,107.1485,0,858.3077,0,110.7,2.078,191,0.593,1.128,136.3112,1.279,52.38,60.33,33.88,35.75
"2017-03-27 15:40:00",281099,0.461,322.5,-1.274,87.3,81.40749,0,858.4005,0,110.7,2.078,191,0.604,1.124,111.7356,1.375,52.38,60.27,33.88,35.74
"2017-03-27 15:50:00",281100,0.727,298.9,-1.624,86.8,60.31978,0,858.5605,0,110.5,2.081,178,0.654,1.163,83.38523,1.391,52.38,60.33,33.88,35.75
"2017-03-27 16:00:00",281101,0.976,278.9,-1.606,82.7,71.50082,0,858.571,0,110.5,2.081,174,0.715,1.232,92.37907,1.295,52.38,60.33,33.88,35.75
"2017-03-27 16:10:00",281102,0.77,263.4,-1.724,84.1,64.02534,0,858.7634,0,110.3,2.084,174,0.743,1.261,75.55289,1.181,52.38,60.33,33.88,35.75
"2017-03-27 16:20:00",281103,0.746,291.7,-2.053,85.7,69.63054,0,858.7596,0,110.5,2.083,174,0.747,1.272,87.48557,1.261,52.38,60.33,33.88,35.75
"2017-03-27 16:30:00",281104,1.004,295.7,-1.962,82.9,65.5978,0,858.8476,0,110.3,2.084,176,0.701,1.277,87.81288,1.352,52.38,60.33,33.88,35.75
"2017-03-27 16:40:00",281105,0.859,282.2,-1.808,84.7,62.30789,0,858.8881,0,110.2,2.085,177,0.68,1.28,82.66985,1.333,52.32,60.27,33.87,35.74
"2017-03-27 16:50:00",281106,0.462,324.4,-1.886,88.9,55.53801,0,858.9934,0,110.3,2.084,181,0.68,1.281,70.14924,1.263,52.38,60.33,33.88,35.75
"2017-03-27 17:00:00",281107,0.765,48.48,-1.689,90.3,71.85044,0,859.1414,0,110.1,2.086,190,0.678,1.282,78.30347,1.098,52.38,60.33,33.88,35.75
"2017-03-27 17:10:00",281108,1.125,0.713,-1.93,87.8,67.565,0,859.1947,0,110.1,2.087,190,0.678,1.282,78.8873,1.172,52.38,60.33,33.88,35.75
"2017-03-27 17:20:00",281109,0.823,341.5,-2.223,87.1,42.66208,0,859.3866,0,110.1,2.088,196,0.678,1.278,47.10114,1.094,52.38,60.33,33.88,35.75
"2017-03-27 17:30:00",281110,0.474,120.8,-2.413,88.9,21.64361,0,859.4077,0,110,2.09,195,0.674,1.244,22.89286,1.067,52.38,60.33,33.88,35.75
"2017-03-27 17:40:00",281111,0.8,241.5,-2.675,82.2,11.08326,0,859.4962,0,110,2.091,196,0.637,1.157,12.92296,1.171,52.38,60.33,33.88,35.75
"2017-03-27 17:50:00",281112,0.882,300.9,-2.958,85.1,6.616928,0,859.6542,0,109.9,2.093,195,0.646,1.123,7.672653,1.153,52.38,60.33,33.88,35.75
"2017-03-27 18:00:00",281113,0.997,269.9,-3.179,81.5,3.373336,0,859.6921,0,110,2.093,196,0.673,1.153,3.76051,1.109,52.38,60.33,33.88,35.75
"2017-03-27 18:10:00",281114,0.682,259.9,-3.352,81.9,0.805994,0,859.9095,0,110,2.093,198,0.684,1.197,0.5572559,0.451,52.38,60.27,33.88,35.74
"2017-03-27 18:20:00",281115,0.614,274.7,-3.344,79.88,0.01179565,0,859.8038,0,109.7,2.096,201,0.7,1.219,0,0,52.38,60.33,33.88,35.75
"2017-03-27 18:30:00",281116,0.827,260.2,-3.349,79.11,0,0,859.9308,0,109.7,2.096,201,0.721,1.24,0,0,52.38,60.33,33.88,35.75
"2017-03-27 18:40:00",281117,0.81,282.3,-3.451,79.79,0,0,859.9854,0,109.7,2.097,191,0.75,1.264,0,0,52.38,60.33,33.88,35.75
"2017-03-27 18:50:00",281118,0.887,286.7,-3.544,81.7,0,0,860.0975,0,109.9,2.095,197,0.767,1.278,0,0,52.38,60.33,33.88,35.75
"2017-03-27 19:00:00",281119,0.612,300.4,-3.568,83,0,0,860.2399,0,109.8,2.096,201,0.734,1.285,0,0,52.38,60.27,33.88,35.74
"2017-03-27 19:10:00",281120,0.233,247.4,-3.616,84.8,0,0,860.2428,0,109.7,2.097,192,0.738,1.314,0,0,52.38,60.33,33.88,35.75
"2017-03-27 19:20:00",281121,0.144,202.2,-3.756,89,0,0,860.4326,0,109.6,2.098,197,0.749,1.317,0,0,52.38,60.33,33.88,35.75
"2017-03-27 19:30:00",281122,0.038,7.563,-3.701,93.2,0,0,860.5085,0,109.6,2.098,193,0.743,1.322,0.09480325,0,52.38,60.33,33.88,35.75
"2017-03-27 19:40:00",281123,0,0,-3.709,100,0.01179891,0,860.5085,0,109.5,2.099,201,0.743,1.317,0.2275278,0.048,52.38,60.33,33.88,35.75
"2017-03-27 19:50:00",281124,0.028,350.2,-3.711,100,0.1061902,0,860.5085,0,109.6,2.098,194,0.737,1.314,0.2275278,0.434,52.38,60.33,33.88,35.75
"2017-03-27 20:00:00",281125,0.072,359.7,-3.712,100,0.1691177,0,860.5254,0,109.5,2.099,188,0.733,1.301,0.2275278,0.691,52.38,60.33,33.88,35.75
"2017-03-27 20:10:00",281126,0,0,-3.696,100,0,0,860.7214,0,109.7,2.097,195,0.742,1.296,0.2275278,0,52.38,60.33,33.88,35.75
"2017-03-27 20:20:00",281127,0.069,348.8,-3.687,100,0,0,860.7615,0,109.5,2.099,187,0.732,1.284,0.2237357,0,52.38,60.33,33.88,35.75
"2017-03-27 20:30:00",281128,0.01,327,-3.69,100,0.03932969,0,860.7615,0,109.6,2.098,200,0.722,1.257,0.0758426,0.112,52.38,60.33,33.88,35.75
"2017-03-27 20:40:00",281129,0,327,-3.85,100,0,0,860.7615,0,109.7,2.098,205,0.729,1.264,0,0,52.38,60.33,33.88,35.75
"2017-03-27 20:50:00",281130,0.098,226.2,-3.991,100,0,0,860.7615,0,109.6,2.099,204,0.732,1.245,0,0,52.38,60.33,33.88,35.75
"2017-03-27 21:00:00",281131,0.029,181.7,-4.015,100,0,0,860.7762,0,109.5,2.1,198,0.747,1.255,0.2161514,0,52.38,60.33,33.88,35.75
"2017-03-27 21:10:00",281132,0.038,186.1,-4.026,100,0,0,860.9047,0,109.6,2.1,198,0.757,1.261,0.06446622,0,52.38,60.33,33.88,35.75
"2017-03-27 21:20:00",281133,0.015,119.4,-4.058,100,0,0,861.0144,0,109.6,2.1,203,0.76,1.26,0.2009829,0,52.38,60.33,33.88,35.75
"2017-03-27 21:30:00",281134,0.043,49.41,-4.156,100,0,0,861.0439,0,109.5,2.101,193,0.758,1.253,0.2275278,0,52.38,60.33,33.88,35.75
"2017-03-27 21:40:00",281135,0.067,13.96,-4.194,100,0,0,861.2293,0,109.6,2.1,200,0.751,1.245,0.1213482,0,52.38,60.33,33.88,35.75
"2017-03-27 21:50:00",281136,0.009,27.8,-4.213,100,0,0,861.2651,0,109.4,2.102,193,0.759,1.251,0,0,52.38,60.33,33.88,35.75
"2017-03-27 22:00:00",281137,0.25,306.1,-4.206,100,0,0,861.2673,0,109.7,2.1,205,0.762,1.256,0,0,52.38,60.33,33.88,35.75
"2017-03-27 22:10:00",281138,0.277,315.5,-4.359,100,0,0,861.2841,0,109.7,2.1,206,0.763,1.265,0,0,52.38,60.33,33.88,35.75
"2017-03-27 22:20:00",281139,0.083,221.5,-4.303,100,0,0,861.3284,0,109.4,2.103,211,0.767,1.27,0,0,52.38,60.33,33.88,35.75
"2017-03-27 22:30:00",281140,0.038,207.3,-4.478,100,0,0,861.4822,0,109.8,2.1,225,0.768,1.269,0,0,52.38,60.33,33.88,35.75
"2017-03-27 22:40:00",281141,0.235,356.4,-4.729,100,0,0,861.5159,0,109.2,2.106,224,0.773,1.29,0,0,52.38,60.33,33.88,35.75
"2017-03-27 22:50:00",281142,0.187,4.838,-4.817,100,0,0,861.5202,0,109.5,2.103,206,0.788,1.311,0,0,52.44,60.33,33.89,35.75
"2017-03-27 23:00:00",281143,0.092,0.875,-4.904,97.7,0,0,861.5202,0,109.4,2.106,205,0.783,1.327,0,0,52.38,60.33,33.88,35.75
"2017-03-27 23:10:00",281144,0.034,147.4,-5.186,98.5,0,0,861.5202,0,109.4,2.106,188,0.748,1.333,0,0,52.38,60.33,33.88,35.75
"2017-03-27 23:20:00",281145,0.225,249.9,-5.006,97.8,0.08654294,0,861.5382,0,109.6,2.103,219,0.758,1.358,0.09482335,0.305,52.38,60.33,33.88,35.75
"2017-03-27 23:30:00",281146,0.169,213.4,-4.856,100,0.1770328,0,861.5554,0,109.5,2.104,205,0.796,1.388,0.2882799,0.924,52.38,60.33,33.88,35.75
"2017-03-27 23:40:00",281147,0.318,202.4,-4.832,100,0.2085137,0,861.5872,0,109.6,2.103,203,0.801,1.384,0.3831275,1.511,52.38,60.33,33.88,35.75
"2017-03-27 23:50:00",281148,0.385,194.1,-4.817,100,0.08655392,0,861.6008,0,109.7,2.102,205,0.802,1.386,0.2389833,0.803,52.38,60.33,33.88,35.75
